This demonstration page uses our WeatherBlox Daily Observations layout. Learn more.

Hourly Observations for August 8, 2015

Temp ( °F °C ) Dew Point ( °F °C ) Humidity (%) Winds ( mph kmh ) Pressure ( in mb ) Visibility ( mi km ) Precip ( " mm )
12:15 am 00:15 Mostly Cloudy with Thunderstorms 68 20 66 19 94 94 Calm 29.88 1012 7 11.265408 0.05 1.27
12:35 am 00:35 Mostly Cloudy with Nearby Thunderstorms 68 20 66 19 94 94 Calm 29.88 1012 7 11.265408 0.08 2.032
12:55 am 00:55 Mostly Cloudy with Light Rain 68 20 66 19 94 94 N 6 9 29.88 1012 10 16.09344 0.08 2.032
1:15 am 01:15 Mostly Cloudy 66 19 63 17 88 88 NE 9 15 29.91 1013 10 16.09344 0.01 0.254
1:35 am 01:35 Partly Cloudy 64 18 63 17 94 94 NE 10 17 29.88 1012 10 16.09344 0.02 0.508
1:55 am 01:55 Partly Cloudy with Light Rain 64 18 63 17 94 94 Calm 29.91 1013 10 16.09344 0.02 0.508
2:15 am 02:15 Cloudy with Rain 64 18 63 17 94 94 E 7 11 29.91 1013 7 11.265408 0.03 0.762
2:35 am 02:35 Cloudy with Thunderstorms 66 19 64 18 94 94 SE 8 13 29.91 1013 5 8.04672 0.1 2.54
2:55 am 02:55 Cloudy with Light Thunderstorms 66 19 64 18 94 94 NE 3 6 29.85 1011 10 16.09344 0.12 3.048
3:15 am 03:15 Cloudy with Thunderstorms 66 19 64 18 94 94 NE 5 7 29.85 1011 10 16.09344 0.02 0.508
3:35 am 03:35 Cloudy with Rain 66 19 64 18 94 94 E 12 19 29.83 1010 7 11.265408 0.08 2.032
3:55 am 03:55 Mostly Cloudy with Light Rain 66 19 64 18 94 94 E 16 26 29.77 1008 10 16.09344 0.13 3.302
4:15 am 04:15 Partly Cloudy 66 19 64 18 94 94 E 12 19 29.74 1007 10 16.09344 0 0
4:35 am 04:35 Partly Cloudy 66 19 64 18 94 94 SE 9 15 29.74 1007 10 16.09344 0 0
4:55 am 04:55 Clear 66 19 64 18 94 94 SE 12 19 29.74 1007 10 16.09344 0 0
5:15 am 05:15 Clear 66 19 64 18 94 94 ESE 12 19 29.74 1007 10 16.09344 0 0
5:35 am 05:35 Clear 66 19 64 18 94 94 ESE 12 19 29.74 1007 10 16.09344 0 0
5:55 am 05:55 Partly Cloudy 66 19 64 18 94 94 SE 12 19 29.77 1008 10 16.09344 0 0
6:15 am 06:15 Mostly Cloudy 66 19 64 18 94 94 SSE 3 6 29.77 1008 10 16.09344 0 0
6:35 am 06:35 Partly Cloudy 66 19 64 18 94 94 Calm 29.77 1008 10 16.09344 0 0
6:55 am 06:55 Sunny 66 19 64 18 94 94 Calm 29.8 1009 10 16.09344 0 0
7:15 am 07:15 Mostly Cloudy 66 19 64 18 94 94 Calm 29.8 1009 10 16.09344 0 0
7:35 am 07:35 Cloudy 66 19 64 18 94 94 Calm 29.8 1009 10 16.09344 0 0
7:55 am 07:55 Mostly Cloudy 66 19 64 18 94 94 Calm 29.8 1009 10 16.09344 0 0
8:15 am 08:15 Sunny 66 19 64 18 94 94 NW 5 7 29.83 1010 10 16.09344 0 0
8:35 am 08:35 Partly Cloudy 68 20 66 19 94 94 NW 5 7 29.83 1010 10 16.09344 0 0
8:55 am 08:55 Partly Cloudy 70 21 66 19 88 88 NW 5 7 29.83 1010 10 16.09344 0 0
9:15 am 09:15 Mostly Cloudy 70 21 66 19 88 88 NNW 3 6 29.83 1010 10 16.09344 0 0
9:35 am 09:35 Partly Cloudy 70 21 66 19 88 88 N 6 9 29.83 1010 10 16.09344 0 0
9:55 am 09:55 Partly Cloudy 72 22 66 19 83 83 NNW 6 9 29.83 1010 10 16.09344 0 0
10:15 am 10:15 Partly Cloudy 72 22 66 19 83 83 NNE 3 6 29.83 1010 10 16.09344 0 0
10:35 am 10:35 Partly Cloudy 75 24 66 19 74 74 Calm 29.8 1009 10 16.09344 0 0
10:55 am 10:55 Mostly Cloudy 73 23 64 18 74 74 Calm 29.8 1009 10 16.09344 0 0
11:15 am 11:15 Mostly Cloudy 75 24 66 19 74 74 Calm 29.8 1009 10 16.09344 0 0
11:35 am 11:35 Partly Cloudy 75 24 66 19 74 74 E 3 6 29.8 1009 10 16.09344 0 0
11:55 am 11:55 Partly Cloudy 77 25 66 19 69 69 E 5 7 29.8 1009 10 16.09344 0 0
12:15 pm 12:15 Partly Cloudy 79 26 64 18 61 61 SSE 8 13 29.77 1008 10 16.09344 0 0
12:35 pm 12:35 Partly Cloudy 79 26 66 19 65 65 SSE 9 15 29.77 1008 10 16.09344 0 0
12:55 pm 12:55 Partly Cloudy 79 26 66 19 65 65 Calm 29.77 1008 10 16.09344 0 0
1:15 pm 13:15 Mostly Cloudy 79 26 68 20 70 70 ESE 3 6 29.74 1007 10 16.09344 0 0
1:35 pm 13:35 Cloudy 79 26 66 19 65 65 SSE 6 9 29.74 1007 10 16.09344 0 0
1:55 pm 13:55 Cloudy 79 26 66 19 65 65 SSE 7 11 29.74 1007 10 16.09344 0 0
2:15 pm 14:15 Cloudy 79 26 66 19 65 65 ESE 5 7 29.77 1008 10 16.09344 0 0
2:35 pm 14:35 Cloudy 81 27 66 19 62 62 SSE 3 6 29.77 1008 10 16.09344 0 0
2:55 pm 14:55 Cloudy 81 27 68 20 66 66 ESE 6 9 29.74 1007 10 16.09344 0 0
3:15 pm 15:15 Cloudy 81 27 68 20 66 66 E 3 6 29.74 1007 10 16.09344 0 0
3:35 pm 15:35 Cloudy 81 27 68 20 66 66 E 5 7 29.74 1007 10 16.09344 0 0
3:55 pm 15:55 Mostly Cloudy 81 27 68 20 66 66 Calm 29.74 1007 10 16.09344 0 0
4:15 pm 16:15 Mostly Cloudy 81 27 68 20 66 66 ESE 5 7 29.74 1007 10 16.09344 0 0
4:35 pm 16:35 Mostly Cloudy 81 27 68 20 66 66 NE 6 9 29.74 1007 10 16.09344 0 0
4:55 pm 16:55 Partly Cloudy 81 27 70 21 70 70 NNE 3 6 29.74 1007 10 16.09344 0 0
5:15 pm 17:15 Sunny 81 27 70 21 70 70 NE 7 11 29.71 1006 10 16.09344 0 0
5:35 pm 17:35 Partly Cloudy 81 27 70 21 70 70 NE 8 13 29.71 1006 10 16.09344 0 0
5:55 pm 17:55 Partly Cloudy 79 26 70 21 74 74 ENE 9 15 29.71 1006 10 16.09344 0 0
6:15 pm 18:15 Sunny 81 27 70 21 70 70 ENE 9 15 29.71 1006 10 16.09344 0 0
6:35 pm 18:35 Sunny 81 27 70 21 70 70 E 10 17 29.74 1007 10 16.09344 0 0
6:55 pm 18:55 Sunny 81 27 70 21 70 70 E 10 17 29.74 1007 10 16.09344 0 0
7:15 pm 19:15 Sunny 79 26 70 21 74 74 E 9 15 29.74 1007 10 16.09344 0 0
7:35 pm 19:35 Partly Cloudy 77 25 70 21 79 79 E 7 11 29.77 1008 10 16.09344 0 0
7:55 pm 19:55 Partly Cloudy 77 25 70 21 79 79 E 5 7 29.77 1008 10 16.09344 0 0
8:15 pm 20:15 Sunny 77 25 72 22 83 83 E 6 9 29.77 1008 10 16.09344 0 0
8:35 pm 20:35 Partly Cloudy 75 24 72 22 89 89 ENE 5 7 29.77 1008 10 16.09344 0 0
8:55 pm 20:55 Partly Cloudy 73 23 70 21 89 89 NE 5 7 29.77 1008 10 16.09344 0 0
9:15 pm 21:15 Clear 73 23 70 21 89 89 ENE 5 7 29.74 1007 10 16.09344 0 0
9:35 pm 21:35 Clear 73 23 70 21 89 89 NE 3 6 29.77 1008 10 16.09344 0 0
9:55 pm 21:55 Clear 73 23 70 21 89 89 NNE 3 6 29.77 1008 10 16.09344 0 0
10:15 pm 22:15 Clear 72 22 70 21 94 94 NNE 3 6 29.77 1008 10 16.09344 0 0
10:35 pm 22:35 Clear 72 22 70 21 94 94 Calm 29.83 1010 10 16.09344 0 0
10:55 pm 22:55 Partly Cloudy 72 22 70 21 94 94 Calm 29.83 1010 10 16.09344 0 0
11:15 pm 23:15 Partly Cloudy 72 22 70 21 94 94 Calm 29.83 1010 10 16.09344 0 0
11:35 pm 23:35 Clear 72 22 70 21 94 94 Calm 29.83 1010 7 11.265408 0 0
11:55 pm 23:55 Partly Cloudy 72 22 70 21 94 94 Calm 29.83 1010 7 11.265408 0 0

Powered by AerisWeather